Weather History for KJAN - November, 2012

Change the Weather History Date:

Wednesday, November 7, 2012

  Actual Average Record
Temperature  
Mean Temperature 52 °F 58 °F  
Max Temperature 65 °F 70 °F 86 °F (2005)
Min Temperature 38 °F 46 °F 23 °F (1959)
Degree Days  
Heating Degree Days 13 8  
Month to date heating degree days 57 49  
Since 1 July heating degree days 168 156  
Cooling Degree Days 0 1  
Month to date cooling degree days 7 8  
Year to date cooling degree days 2517 2239  
Moisture  
Dew Point 37 °F    
Average Humidity 66    
Maximum Humidity 100    
Minimum Humidity 31    
Precipitation  
Precipitation 0.00 in 0.13 in 2.45 in (1989)
Month to date precipitation 1.02 0.96  
Year to date precipitation 58.90 45.19  
Sea Level Pressure  
Sea Level Pressure 30.08 in    
Wind  
Wind Speed 6 mph (NNW)    
Max Wind Speed 24 mph    
Max Gust Speed 30 mph    
Visibility 9 miles    
Events      
T = Trace of Precipitation, MM = Missing Value Source: NWS Daily Summary

Daily Weather History Graph

Daily Weather History Graph

Search for Another Location

Airport or City:

Trip Planner

Search our weather history database for the weather conditions in past years. The results will help you decide how hot, cold, wet, or windy it might be!

Date:

Astronomy

Nov. 07, 2012 Rise Set
Actual Time 6:22 AM CST 5:04 PM CST
Civil Twilight 5:57 AM CST 5:30 PM CST
Nautical Twilight 5:28 AM CST 5:59 PM CST
Astronomical Twilight 4:59 AM CST 6:28 PM CST
Moon No Moon Rise 12:52 PM CST (11/7)
Length of Visible Light 11h 33m
Length of Day
10h 41m
Last Quarter, 43% of the Moon is Illuminated
Nov 7
Last Quarter
Nov 13
New
Nov 20
First Quarter
Nov 28
Full
Dec 6
Last Quarter

Hourly Weather History & Observations

Time (CST) Temp. Windchill Dew Point Humidity Pressure Visibility Wind Dir Wind Speed Gust Speed Precip Events Conditions
12:54 AM 41.0 °F 39.0 °F 39.0 °F 93% 30.04 in 10.0 mi SE 3.5 mph - N/A   Clear
1:54 AM 42.1 °F - 39.9 °F 92% 30.03 in 10.0 mi Calm Calm - N/A   Clear
2:50 AM 41.0 °F - 39.2 °F 93% 30.02 in 2.5 mi Calm Calm - N/A   Clear
2:54 AM 39.9 °F - 39.0 °F 97% 30.02 in 3.0 mi Calm Calm - N/A   Clear
3:54 AM 39.9 °F - 39.0 °F 97% 30.03 in 8.0 mi Calm Calm - N/A   Clear
4:54 AM 41.0 °F - 39.0 °F 93% 30.05 in 8.0 mi Calm Calm - N/A   Clear
5:54 AM 39.0 °F - 37.0 °F 93% 30.05 in 6.0 mi Calm Calm - N/A   Clear
6:54 AM 39.9 °F - 39.0 °F 97% 30.07 in 7.0 mi Calm Calm - N/A   Clear
7:54 AM 48.9 °F - 44.1 °F 83% 30.08 in 10.0 mi Calm Calm - N/A   Clear
8:54 AM 54.0 °F - 45.0 °F 72% 30.09 in 10.0 mi WNW 5.8 mph - N/A   Clear
9:54 AM 59.0 °F - 41.0 °F 51% 30.09 in 10.0 mi WNW 5.8 mph - N/A   Clear
10:54 AM 62.1 °F - 37.0 °F 39% 30.07 in 10.0 mi NNW 12.7 mph 19.6 mph N/A   Partly Cloudy
11:54 AM 63.0 °F - 35.1 °F 35% 30.05 in 10.0 mi NW 10.4 mph - N/A   Partly Cloudy
12:54 PM 64.0 °F - 36.0 °F 35% 30.02 in 10.0 mi NW 13.8 mph 23.0 mph N/A   Partly Cloudy
1:54 PM 64.0 °F - 33.1 °F 31% 30.01 in 10.0 mi NW 13.8 mph 21.9 mph N/A   Partly Cloudy
2:54 PM 64.0 °F - 33.1 °F 31% 30.01 in 10.0 mi NNW 18.4 mph 23.0 mph N/A   Partly Cloudy
3:54 PM 63.0 °F - 33.1 °F 33% 30.04 in 10.0 mi NNW 11.5 mph - N/A   Partly Cloudy
4:54 PM 59.0 °F - 35.1 °F 41% 30.06 in 10.0 mi North 12.7 mph - N/A   Partly Cloudy
5:54 PM 54.0 °F - 36.0 °F 51% 30.10 in 10.0 mi NNW 10.4 mph 19.6 mph N/A   Clear
6:54 PM 53.1 °F - 35.1 °F 50% 30.12 in 10.0 mi North 11.5 mph - N/A   Clear
7:54 PM 51.1 °F - 35.1 °F 54% 30.14 in 10.0 mi NNE 9.2 mph - N/A   Clear
8:54 PM 48.9 °F - 35.1 °F 59% 30.15 in 10.0 mi NNE 6.9 mph - N/A   Clear
9:54 PM 46.9 °F - 35.1 °F 63% 30.17 in 10.0 mi NE 3.5 mph - N/A   Clear
10:54 PM 42.1 °F - 36.0 °F 79% 30.17 in 10.0 mi Calm Calm - N/A   Clear
11:54 PM 41.0 °F - 36.0 °F 82% 30.18 in 10.0 mi Calm Calm - N/A   Clear